Langdon, ND

9:55 AM CST on February 14, 2016 (GMT -0600)
Langdon

Weather History for KD55 - September, 2013

Change the Weather History Date:

Tuesday, September 3, 2013

  Actual Average (KDVL) Record (KDVL)
Temperature  
Mean Temperature 68 °F -  
Max Temperature 86 °F 76 °F 98 °F (1983)
Min Temperature 51 °F 51 °F 35 °F (1984)
Cooling Degree Days 4    
Growing Degree Days 18 (Base 50)    
Moisture  
Dew Point 50 °F    
Average Humidity 55    
Maximum Humidity 59    
Minimum Humidity 52    
Precipitation  
Precipitation 0.00 in - - ()
Sea Level Pressure  
Sea Level Pressure 29.98 in    
Wind  
Wind Speed 10 mph (WSW)    
Max Wind Speed 18 mph    
Max Gust Speed 25 mph    
Visibility 10 miles    
Events      
Averages and records for this station are not official NWS values.
T = Trace of Precipitation, MM = Missing Value Source: NWS Daily Summary

Daily Weather History Graph

Daily Weather History Graph

Search for Another Location

Airport or City:

Trip Planner

Search our weather history database for the weather conditions in past years. The results will help you decide how hot, cold, wet, or windy it might be!

Date:

Astronomy

Sep. 03, 2013 Rise Set
Actual Time 6:53 AM CDT 8:10 PM CDT
Civil Twilight 6:21 AM CDT 8:43 PM CDT
Nautical Twilight 5:41 AM CDT 9:22 PM CDT
Astronomical Twilight 4:59 AM CDT 10:04 PM CDT
Moon 5:04 AM CDT (9/3) 7:00 PM CDT (9/3)
Length of Visible Light 14h 22m
Length of Day
13h 17m
Waning Crescent, 3% of the Moon is Illuminated
Sep 3
Waning Crescent
Sep 5
New
Sep 12
First Quarter
Sep 19
Full
Sep 26
Last Quarter

Hourly Weather History & Observations

Time (CDT) Temp. Heat Index Dew Point Humidity Pressure Visibility Wind Dir Wind Speed Gust Speed Precip Events Conditions
12:15 AM 55.4 °F - 39.2 °F 54% 29.98 in 10.0 mi SSW 9.2 mph - N/A   Clear
12:35 AM 55.4 °F - 41.0 °F 58% 29.98 in 10.0 mi SSW 9.2 mph - N/A   Clear
12:55 AM 55.4 °F - 39.2 °F 54% 29.97 in 10.0 mi SSW 10.4 mph - N/A   Clear
1:15 AM 55.4 °F - 39.2 °F 54% 29.97 in 10.0 mi SSW 10.4 mph - N/A   Clear
1:35 AM 53.6 °F - 39.2 °F 58% 29.97 in 10.0 mi SSW 10.4 mph - N/A   Clear
1:55 AM 53.6 °F - 37.4 °F 54% 29.97 in 10.0 mi SSW 10.4 mph - N/A   Clear
2:15 AM 53.6 °F - 37.4 °F 54% 29.97 in 10.0 mi SSW 9.2 mph - N/A   Clear
2:35 AM 53.6 °F - 37.4 °F 54% 29.97 in 10.0 mi SSW 9.2 mph - N/A   Clear
2:55 AM 53.6 °F - 37.4 °F 54% 29.97 in 10.0 mi SSW 8.1 mph - N/A   Clear
3:15 AM 51.8 °F - 37.4 °F 58% 29.96 in 10.0 mi SSW 8.1 mph - N/A   Clear
3:35 AM 51.8 °F - 37.4 °F 58% 29.96 in 10.0 mi SSW 9.2 mph - N/A   Clear
3:55 AM 51.8 °F - 35.6 °F 54% 29.96 in 10.0 mi SSW 8.1 mph - N/A   Clear
4:15 AM 51.8 °F - 35.6 °F 54% 29.96 in 10.0 mi SSW 9.2 mph - N/A   Clear
4:35 AM 51.8 °F - 35.6 °F 54% 29.96 in 10.0 mi SSW 8.1 mph - N/A   Clear
4:55 AM 51.8 °F - 35.6 °F 54% 29.95 in 10.0 mi SSW 8.1 mph - N/A   Clear
5:15 AM 53.6 °F - 37.4 °F 54% 29.95 in 10.0 mi SSW 9.2 mph - N/A   Clear
5:35 AM 53.6 °F - 37.4 °F 54% 29.95 in 10.0 mi SSW 10.4 mph - N/A   Clear
5:55 AM 53.6 °F - 37.4 °F 54% 29.95 in 10.0 mi SSW 9.2 mph - N/A   Clear
6:15 AM 53.6 °F - 37.4 °F 54% 29.95 in 10.0 mi SSW 10.4 mph - N/A   Clear
6:35 AM 53.6 °F - 37.4 °F 54% 29.95 in 10.0 mi SSW 9.2 mph - N/A   Clear
6:55 AM 51.8 °F - 37.4 °F 58% 29.96 in 10.0 mi SSW 8.1 mph - N/A   Clear
7:15 AM 51.8 °F - 37.4 °F 58% 29.96 in 10.0 mi SSW 6.9 mph - N/A   Clear
7:35 AM 51.8 °F - 37.4 °F 58% 29.96 in 10.0 mi SSW 5.8 mph - N/A   Clear
7:55 AM 53.6 °F - 37.4 °F 54% 29.96 in 10.0 mi SSW 8.1 mph - N/A   Clear
8:15 AM 55.4 °F - 39.2 °F 54% 29.96 in 10.0 mi SW 6.9 mph - N/A   Clear
8:35 AM 59.0 °F - 42.8 °F 55% 29.96 in 10.0 mi SW 8.1 mph - N/A   Clear
8:55 AM 60.8 °F - 44.6 °F 55% 29.96 in 10.0 mi SW 9.2 mph - N/A   Clear
9:15 AM 64.4 °F - 48.2 °F 56% 29.96 in 10.0 mi SW 9.2 mph - N/A   Clear
9:35 AM 66.2 °F - 50.0 °F 56% 29.96 in 10.0 mi WSW 10.4 mph - N/A   Clear
9:55 AM 68.0 °F - 51.8 °F 56% 29.96 in 10.0 mi WSW 10.4 mph - N/A   Clear
10:15 AM 71.6 °F - 55.4 °F 57% 29.96 in 10.0 mi WSW 10.4 mph - N/A   Clear
10:35 AM 73.4 °F - 57.2 °F 57% 29.96 in 10.0 mi WSW 10.4 mph - N/A   Clear
10:55 AM 75.2 °F - 57.2 °F 53% 29.97 in 10.0 mi West 10.4 mph - N/A   Clear
11:15 AM 77.0 °F - 59.0 °F 54% 29.96 in 10.0 mi WSW 10.4 mph - N/A   Clear
11:35 AM 77.0 °F - 60.8 °F 57% 29.96 in 10.0 mi West 9.2 mph - N/A   Clear
11:55 AM 78.8 °F - 62.6 °F 57% 29.96 in 10.0 mi WSW 9.2 mph - N/A   Clear
12:15 PM 80.6 °F 82.3 °F 64.4 °F 58% 29.95 in 10.0 mi WSW 9.2 mph - N/A   Clear
12:35 PM 82.4 °F 83.9 °F 64.4 °F 54% 29.95 in 10.0 mi West 11.5 mph 16.1 mph N/A   Clear
12:55 PM 82.4 °F 84.6 °F 66.2 °F 58% 29.95 in 10.0 mi WSW 11.5 mph 18.4 mph N/A   Clear
1:15 PM 84.2 °F 86.6 °F 66.2 °F 55% 29.94 in 10.0 mi West 12.7 mph 19.6 mph N/A   Partly Cloudy
1:35 PM 82.4 °F 83.9 °F 64.4 °F 54% 29.95 in 10.0 mi WSW 12.7 mph 18.4 mph N/A   Clear
1:55 PM 84.2 °F 87.3 °F 68.0 °F 58% 29.95 in 10.0 mi WSW 13.8 mph 20.7 mph N/A   Clear
2:15 PM 84.2 °F 86.6 °F 66.2 °F 55% 29.95 in 10.0 mi West 10.4 mph 19.6 mph N/A   Clear
2:35 PM 86.0 °F 89.4 °F 68.0 °F 55% 29.94 in 10.0 mi WSW 15.0 mph 21.9 mph N/A   Clear
2:55 PM 86.0 °F 89.4 °F 68.0 °F 55% 29.94 in 10.0 mi WSW 17.3 mph 24.2 mph N/A   Clear
3:15 PM 84.2 °F 87.3 °F 68.0 °F 58% 29.95 in 10.0 mi WSW 18.4 mph 25.3 mph N/A   Clear
3:35 PM 86.0 °F 89.4 °F 68.0 °F 55% 29.94 in 10.0 mi WSW 13.8 mph 19.6 mph N/A   Clear
3:55 PM 86.0 °F 89.4 °F 68.0 °F 55% 29.94 in 10.0 mi West 11.5 mph 20.7 mph N/A   Clear
4:15 PM 84.2 °F 86.6 °F 66.2 °F 55% 29.94 in 10.0 mi NNE 16.1 mph - N/A   Clear
4:35 PM 82.4 °F 83.9 °F 64.4 °F 54% 29.95 in 10.0 mi North 15.0 mph - N/A   Clear
4:55 PM 82.4 °F 83.9 °F 64.4 °F 54% 29.96 in 10.0 mi NNE 11.5 mph - N/A   Clear
5:15 PM 80.6 °F 82.3 °F 64.4 °F 58% 29.97 in 10.0 mi NNE 13.8 mph - N/A   Clear
5:35 PM 77.0 °F - 60.8 °F 57% 29.97 in 10.0 mi NNE 12.7 mph 19.6 mph N/A   Clear
5:55 PM 75.2 °F - 59.0 °F 57% 29.99 in 10.0 mi NNE 15.0 mph - N/A   Clear
6:15 PM 75.2 °F - 57.2 °F 53% 30.00 in 10.0 mi North 12.7 mph - N/A   Clear
6:35 PM 73.4 °F - 57.2 °F 57% 30.00 in 10.0 mi North 11.5 mph - N/A   Clear
6:55 PM 73.4 °F - 55.4 °F 53% 30.01 in 10.0 mi NNE 12.7 mph - N/A   Clear
7:15 PM 71.6 °F - 55.4 °F 57% 30.01 in 10.0 mi North 12.7 mph - N/A   Clear
7:35 PM 69.8 °F - 53.6 °F 56% 30.01 in 10.0 mi North 10.4 mph 16.1 mph N/A   Clear
7:55 PM 68.0 °F - 51.8 °F 56% 30.02 in 10.0 mi NNE 13.8 mph - N/A   Clear
8:15 PM 68.0 °F - 50.0 °F 52% 30.03 in 10.0 mi North 10.4 mph - N/A   Clear
8:35 PM 66.2 °F - 50.0 °F 56% 30.05 in 10.0 mi NNE 12.7 mph - N/A   Clear
8:55 PM 66.2 °F - 50.0 °F 56% 30.05 in 10.0 mi NE 15.0 mph 20.7 mph N/A   Clear
9:15 PM 64.4 °F - 48.2 °F 56% 30.05 in 10.0 mi NNE 15.0 mph 20.7 mph N/A   Clear
9:35 PM 64.4 °F - 48.2 °F 56% 30.05 in 10.0 mi NE 17.3 mph 20.7 mph N/A   Clear
9:55 PM 64.4 °F - 46.4 °F 52% 30.07 in 10.0 mi NE 12.7 mph - N/A   Clear
10:15 PM 62.6 °F - 46.4 °F 55% 30.07 in 10.0 mi NE 12.7 mph - N/A   Clear
10:35 PM 62.6 °F - 46.4 °F 55% 30.09 in 10.0 mi NE 16.1 mph - N/A   Clear
10:55 PM 60.8 °F - 44.6 °F 55% 30.10 in 10.0 mi NE 17.3 mph 21.9 mph N/A   Clear
11:15 PM 59.0 °F - 44.6 °F 59% 30.10 in 10.0 mi NE 13.8 mph - N/A   Clear
11:35 PM 59.0 °F - 42.8 °F 55% 30.11 in 10.0 mi NE 12.7 mph 17.3 mph N/A   Clear
11:55 PM 57.2 °F - 41.0 °F 55% 30.12 in 10.0 mi NE 12.7 mph - N/A   Clear